This demonstration page uses our WeatherBlox Daily Observations layout. Learn more.

38.89511, -77.03637

Hourly Observations for September 28, 2019

Temp ( °F °C ) Dew Point ( °F °C ) Humidity (%) Winds ( mph kmh ) Pressure ( in mb ) Visibility ( mi km ) Precip ( " mm )
12:52 am 00:52 Mostly Clear 69 20.6 60 15.6 73 73 SE 6 9 30.09 1019 10 16.09344 0 0
1:52 am 01:52 Clear 68 20 61 16.1 78 78 SSE 5 7 30.09 1019 10 16.09344 0 0
2:52 am 02:52 Mostly Clear 68 20 61 16.1 78 78 S 3 6 30.09 1019 10 16.09344 0 0
3:52 am 03:52 Partly Cloudy 67 19.4 61 16.1 81 81 SE 5 7 30.09 1019 10 16.09344 0 0
4:42 am 04:42 Mostly Cloudy 68 20 62 16.7 81 81 Calm 30.09 1019 10 16.09344 0 0
4:52 am 04:52 Cloudy 68 20 62 16.7 81 81 Calm 30.09 1019 10 16.09344 0 0
5:52 am 05:52 Mostly Cloudy 68 20 63 17.2 84 84 Calm 30.09 1019 10 16.09344 0 0
5:57 am 05:57 Mostly Cloudy 68 20 63 17.2 84 84 Calm 30.12 1020 10 16.09344 0 0
6:09 am 06:09 Mostly Cloudy 68 20 64 17.8 87 87 SE 5 7 30.12 1020 10 16.09344 0 0
6:19 am 06:19 Cloudy 68 20 64 17.8 87 87 SE 3 6 30.12 1020 10 16.09344 0 0
6:52 am 06:52 Cloudy 69 20.6 64 17.8 84 84 SE 3 6 30.09 1019 10 16.09344 0 0
7:52 am 07:52 Cloudy 70 21.1 66 18.9 87 87 S 5 7 30.09 1019 10 16.09344 0 0
8:52 am 08:52 Cloudy 71 21.7 67 19.4 87 87 S 6 9 30.12 1020 10 16.09344 0 0
9:00 am 09:00 Cloudy 71 21.7 67 19.4 87 87 S 6 9 30.12 1020 10 16.09344 0 0
9:52 am 09:52 Cloudy 73 22.8 67 19.4 81 81 S 7 11 30.09 1019 10 16.09344 0 0
10:38 am 10:38 Cloudy 74 23.3 68 20 82 82 S 8 13 30.12 1020 10 16.09344 0 0
10:52 am 10:52 Cloudy 74 23.3 68 20 82 82 S 7 11 30.12 1020 10 16.09344 0 0
11:52 am 11:52 Cloudy 77 25 70 21.1 79 79 SSE 10 17 30.12 1020 10 16.09344 0 0
12:50 pm 12:50 Mostly Cloudy 79 26 70 21 74 74 S 12 19 30.12 1020 10 16.09344 0 0
12:52 pm 12:52 Mostly Cloudy 78 25.6 70 21.1 76 76 S 12 19 30.09 1019 10 16.09344 0 0
1:35 pm 13:35 Mostly Cloudy 79 26.1 70 21.1 74 74 SW 9 15 30.12 1020 10 16.09344 0 0
1:52 pm 13:52 Mostly Cloudy 81 27.2 70 21.1 69 69 SSW 9 15 30.09 1019 10 16.09344 0 0
2:04 pm 14:04 Mostly Cloudy 81 27.2 70 21.1 69 69 S 7 11 30.09 1019 10 16.09344 0 0
2:52 pm 14:52 Mostly Cloudy 83 28.3 71 21.7 67 67 SSE 9 15 30.06 1018 10 16.09344 0 0
3:52 pm 15:52 Mostly Cloudy 82 27.8 71 21.7 69 69 S 12 19 30.03 1017 10 16.09344 0 0
4:52 pm 16:52 Mostly Cloudy 84 28.9 71 21.7 65 65 S 9 15 30.06 1018 10 16.09344 0 0
5:52 pm 17:52 Mostly Cloudy 83 28.3 71 21.7 67 67 SSW 12 19 30.06 1018 10 16.09344 0 0
6:52 pm 18:52 Cloudy 81 27.2 73 22.8 77 77 S 7 11 30.03 1017 10 16.09344 0 0
7:52 pm 19:52 Cloudy 80 26.7 72 22.2 76 76 SSW 7 11 30.03 1017 10 16.09344 0 0
8:52 pm 20:52 Mostly Cloudy 78 25.6 74 23.3 87 87 S 6 9 30.06 1018 9 14.484096 0 0
9:52 pm 21:52 Mostly Cloudy 77 25 73 22.8 88 88 S 6 9 30.09 1019 10 16.09344 0 0
10:52 pm 22:52 Cloudy 78 25.6 72 22.2 82 82 S 6 9 30.09 1019 10 16.09344 0 0
11:52 pm 23:52 Mostly Cloudy 75 23.9 71 21.7 88 88 SSW 7 11 30.09 1019 10 16.09344 0 0

Powered by AerisWeather